Madison, WI

1:09 PM CST on November 14, 2019 (GMT -0600)
Dane County Regional-Truax

Weather History for KMSN - July, 2019

Change the Weather History Date:

Tuesday, July 16, 2019

  Actual Average Record
Temperature  
Mean Temperature 81 °F 72 °F  
Max Temperature 90 °F 82 °F 98 °F (2012)
Min Temperature 71 °F 61 °F 48 °F (1966)
Degree Days  
Heating Degree Days 0 0  
Month to date heating degree days 0 0  
Since 1 June heating degree days 42 60  
Since 1 July heating degree days 0 0  
Cooling Degree Days 16 7  
Month to date cooling degree days 174 110  
Year to date cooling degree days 292 260  
Since 1 June cooling degree days 272 230  
Growing Degree Days 31 (Base 50)    
Moisture  
Dew Point 67 °F    
Average Humidity 72    
Maximum Humidity 93    
Minimum Humidity 50    
Precipitation  
Precipitation 0.08 in 0.14 in 2.68 in (1950)
Month to date precipitation 2.22 2.24  
Year to date precipitation 23.19 18.61  
Snow  
Snow 0.00 in 0.00 in 0.00 in (2018)
Month to date snowfall 0.0 0.0  
Since 1 June snowfall 0.0 0.0  
Since 1 July snowfall 0.0 0.0  
Snow Depth 0.00 in    
Sea Level Pressure  
Sea Level Pressure 29.88 in    
Wind  
Wind Speed 5 mph (SW)    
Max Wind Speed 18 mph    
Max Gust Speed 28 mph    
Visibility 10 miles    
Events Rain    
T = Trace of Precipitation, MM = Missing Value Source: NWS Daily Summary

Daily Weather History Graph

Daily Weather History Graph

Search for Another Location

Airport or City:

Astronomy

Jul. 16, 2019 Rise Set
Actual Time 5:32 AM CDT 8:34 PM CDT
Civil Twilight 4:57 AM CDT 9:08 PM CDT
Nautical Twilight 4:14 AM CDT 9:51 PM CDT
Astronomical Twilight 3:22 AM CDT 10:43 PM CDT
Moon 8:40 PM CDT (7/16) 5:09 AM CDT (7/16)
Length of Visible Light 16h 10m
Length of Day
15h 02m
Full, 100% of the Moon is Illuminated
Jul 16
Full
Jul 16
Full
Jul 24
Last Quarter
Jul 31
New
Aug 7
First Quarter

Hourly Weather History & Observations

Time (CDT) Temp. Heat Index Dew Point Humidity Pressure Visibility Wind Dir Wind Speed Gust Speed Precip Events Conditions
12:53 AM 75.9 °F - 64.9 °F 69% 29.94 in 10.0 mi SW 6.9 mph - N/A   Clear
1:53 AM 75.0 °F - 64.9 °F 71% 29.92 in 10.0 mi SSW 10.4 mph - N/A   Partly Cloudy
2:53 AM 73.9 °F - 64.9 °F 73% 29.88 in 10.0 mi SW 5.8 mph - N/A   Partly Cloudy
3:53 AM 73.0 °F - 64.9 °F 76% 29.83 in 10.0 mi South 16.1 mph 25.3 mph N/A   Clear
4:53 AM 73.0 °F - 64.9 °F 76% 29.87 in 10.0 mi WSW 6.9 mph 16.1 mph N/A   Clear
5:53 AM 72.0 °F - 64.9 °F 78% 29.87 in 10.0 mi SSW 6.9 mph - N/A   Scattered Clouds
6:53 AM 73.0 °F - 66.0 °F 79% 29.89 in 10.0 mi Variable 4.6 mph - N/A   Scattered Clouds
7:27 AM 73.0 °F - 66.9 °F 81% 29.92 in 10.0 mi Variable 4.6 mph - N/A   Mostly Cloudy
7:53 AM 73.0 °F - 66.9 °F 81% 29.90 in 10.0 mi Variable 4.6 mph - N/A   Mostly Cloudy
8:53 AM 75.0 °F - 66.9 °F 76% 29.91 in 10.0 mi Variable 6.9 mph - N/A   Mostly Cloudy
9:02 AM 75.0 °F - 68.0 °F 79% 29.92 in 10.0 mi SW 9.2 mph - N/A   Scattered Clouds
9:53 AM 77.0 °F - 66.9 °F 71% 29.91 in 10.0 mi SW 8.1 mph - N/A   Scattered Clouds
11:53 AM 82.0 °F 84.9 °F 68.0 °F 62% 29.90 in 10.0 mi SSW 6.9 mph - N/A   Scattered Clouds
12:53 PM 84.0 °F 87.8 °F 69.1 °F 61% 29.88 in 10.0 mi Variable 4.6 mph - N/A   Mostly Cloudy
1:53 PM 84.9 °F 88.2 °F 68.0 °F 57% 29.86 in 10.0 mi Variable 4.6 mph - N/A   Mostly Cloudy
2:53 PM 87.1 °F 90.6 °F 68.0 °F 53% 29.85 in 10.0 mi SW 4.6 mph - N/A   Mostly Cloudy
3:53 PM 87.1 °F 89.9 °F 66.9 °F 51% 29.84 in 10.0 mi Calm Calm - N/A   Mostly Cloudy
4:53 PM 88.0 °F 92.1 °F 69.1 °F 53% 29.83 in 10.0 mi NW 5.8 mph - N/A   Mostly Cloudy
5:53 PM 89.1 °F 93.7 °F 69.1 °F 52% 29.83 in 10.0 mi Calm Calm - N/A   Scattered Clouds
6:53 PM 87.1 °F 92.0 °F 70.0 °F 57% 29.83 in 10.0 mi Variable 3.5 mph - N/A   Mostly Cloudy
7:53 PM 84.0 °F 88.4 °F 70.0 °F 63% 29.84 in 10.0 mi Calm Calm - N/A   Mostly Cloudy
8:53 PM 80.1 °F 83.6 °F 71.1 °F 74% 29.84 in 10.0 mi WNW 3.5 mph - N/A   Mostly Cloudy
9:53 PM 77.0 °F - 68.0 °F 74% 29.87 in 10.0 mi NW 3.5 mph - N/A   Mostly Cloudy
10:53 PM 75.9 °F - 66.9 °F 74% 29.86 in 10.0 mi NW 4.6 mph - 0.00 in Rain Light Rain
11:53 PM 72.0 °F - 69.1 °F 91% 29.88 in 9.0 mi Calm Calm - 0.03 in Rain Light Rain